Weather History for Staples, MN

Change the Weather History Date:

Saturday, February 16, 2013

  Actual Average Record
Temperature  
Mean Temperature 9 °F -  
Max Temperature 15 °F 24 °F 46 °F (2011)
Min Temperature 3 °F 6 °F -18 °F (1997)
Degree Days  
Heating Degree Days 56    
Moisture  
Dew Point 4 °F    
Average Humidity 81    
Maximum Humidity 92    
Minimum Humidity 62    
Precipitation  
Precipitation 0.00 in - - ()
Sea Level Pressure  
Sea Level Pressure 30.10 in    
Wind  
Wind Speed 4 mph (South)    
Max Wind Speed 8 mph    
Max Gust Speed -    
Visibility 8 miles    
Events Snow    
Averages and records for this station are not official NWS values.
T = Trace of Precipitation, MM = Missing Value Source: NWS Daily Summary

Daily Weather History Graph

Daily Weather History Graph

Search for Another Location

Airport:

Trip Planner

Search our weather history database for the weather conditions in past years. The results will help you decide how hot, cold, wet, or windy it might be!

Date:

Astronomy

Feb. 16, 2013 Rise Set
Actual Time 7:20 AM CST 5:46 PM CST
Civil Twilight 6:49 AM CST 6:17 PM CST
Nautical Twilight 6:14 AM CST 6:52 PM CST
Astronomical Twilight 5:39 AM CST 7:27 PM CST
Moon 10:08 AM CST (2/16) 12:11 AM CST (2/16)
Length of Visible Light 11h 28m
Length of Day
10h 26m
Waxing Crescent, 39% of the Moon is Illuminated
Feb 16
Waxing Crescent
Feb 17
First Quarter
Feb 25
Full
Mar 4
Last Quarter
Mar 11
New

Hourly Weather History & Observations

Time (CST) Temp. Windchill Dew Point Humidity Pressure Visibility Wind Dir Wind Speed Gust Speed Precip Events Conditions
12:13 AM 3.2 °F -6.2 °F -0.4 °F 85% 30.19 in 4.0 mi West 4.6 mph - N/A Snow Light Snow
12:33 AM 3.2 °F -6.2 °F 1.4 °F 92% 30.19 in 4.0 mi WNW 4.6 mph - N/A Snow Light Snow
12:53 AM 3.2 °F -7.8 °F 1.4 °F 92% 30.19 in 4.0 mi WNW 5.8 mph - N/A Snow Light Snow
1:13 AM 3.2 °F -10.3 °F 1.4 °F 92% 30.19 in 7.0 mi West 8.1 mph - N/A Snow Light Snow
1:34 AM 5.0 °F -8.1 °F 3.2 °F 92% 30.18 in 7.0 mi West 8.1 mph - N/A Snow Light Snow
1:53 AM 5.0 °F -8.1 °F 3.2 °F 92% 30.18 in 5.0 mi WNW 8.1 mph - N/A Snow Light Snow
2:13 AM 5.0 °F -6.9 °F 3.2 °F 92% 30.17 in 7.0 mi WNW 6.9 mph - N/A Snow Light Snow
2:33 AM 5.0 °F -4.1 °F 3.2 °F 92% 30.17 in 10.0 mi West 4.6 mph - N/A Snow Light Snow
2:53 AM 6.8 °F -3.5 °F 3.2 °F 85% 30.16 in 10.0 mi West 5.8 mph - N/A Snow Light Snow
3:13 AM 5.0 °F -2.1 °F 3.2 °F 92% 30.16 in 5.0 mi West 3.5 mph - N/A Snow Light Snow
3:34 AM 6.8 °F -0.1 °F 3.2 °F 85% 30.15 in 4.0 mi WSW 3.5 mph - N/A Snow Light Snow
3:53 AM 6.8 °F - 3.2 °F 85% 30.15 in 3.0 mi Calm Calm - N/A Snow Light Snow
4:13 AM 6.8 °F - 3.2 °F 85% 30.14 in 5.0 mi Calm Calm - N/A Snow Light Snow
4:34 AM 6.8 °F - 3.2 °F 85% 30.13 in 3.0 mi Calm Calm - N/A Snow Light Snow
4:53 AM 6.8 °F - 3.2 °F 85% 30.13 in 4.0 mi Calm Calm - N/A Snow Light Snow
5:13 AM 6.8 °F - 3.2 °F 85% 30.13 in 5.0 mi Calm Calm - N/A Snow Light Snow
5:34 AM 6.8 °F -2.0 °F 3.2 °F 85% 30.13 in 7.0 mi SSW 4.6 mph - N/A Snow Light Snow
5:53 AM 6.8 °F - 3.2 °F 85% 30.13 in 7.0 mi Calm Calm - N/A Snow Light Snow
6:13 AM 6.8 °F - 3.2 °F 85% 30.13 in 4.0 mi Calm Calm - N/A Snow Light Snow
6:33 AM 6.8 °F - 3.2 °F 85% 30.13 in 5.0 mi Calm Calm - N/A Snow Light Snow
6:53 AM 5.0 °F - 3.2 °F 92% 30.13 in 7.0 mi Calm Calm - N/A Snow Light Snow
7:14 AM 5.0 °F -2.1 °F 3.2 °F 92% 30.13 in 7.0 mi SW 3.5 mph - N/A Snow Light Snow
7:33 AM 5.0 °F -2.1 °F 3.2 °F 92% 30.13 in 4.0 mi SSW 3.5 mph - N/A Snow Light Snow
7:53 AM 5.0 °F -2.1 °F 3.2 °F 92% 30.13 in 4.0 mi SSW 3.5 mph - N/A Snow Light Snow
8:14 AM 5.0 °F - 3.2 °F 92% 30.13 in 3.0 mi Calm Calm - N/A Snow Light Snow
8:33 AM 5.0 °F - 3.2 °F 92% 30.12 in 2.0 mi Calm Calm - N/A Snow Light Snow
8:53 AM 5.0 °F - 3.2 °F 92% 30.12 in 3.0 mi Calm Calm - N/A Snow Light Snow
9:13 AM 6.8 °F -2.0 °F 3.2 °F 85% 30.12 in 1.0 mi South 4.6 mph - N/A Snow Light Snow
9:33 AM 6.8 °F -2.0 °F 3.2 °F 85% 30.11 in 0.8 mi South 4.6 mph - N/A Snow Light Snow
9:54 AM 6.8 °F -2.0 °F 3.2 °F 85% 30.12 in 5.0 mi South 4.6 mph - N/A Snow Light Snow
10:13 AM 6.8 °F -2.0 °F 3.2 °F 85% 30.12 in 5.0 mi South 4.6 mph - N/A Snow Light Snow
10:32 AM 8.6 °F -1.3 °F 6.8 °F 92% 30.12 in 7.0 mi ESE 5.8 mph - N/A Snow Light Snow
10:53 AM 6.8 °F -0.1 °F 5.0 °F 92% 30.12 in 10.0 mi ESE 3.5 mph - N/A   Mostly Cloudy
11:13 AM 8.6 °F 2.0 °F 5.0 °F 85% 30.11 in 10.0 mi SE 3.5 mph - N/A   Mostly Cloudy
11:33 AM 8.6 °F 2.0 °F 3.2 °F 79% 30.11 in 10.0 mi SSE 3.5 mph - N/A   Scattered Clouds
11:53 AM 10.4 °F 2.2 °F 3.2 °F 73% 30.10 in 10.0 mi SSE 4.6 mph - N/A   Clear
12:13 PM 10.4 °F 2.2 °F 5.0 °F 79% 30.10 in 10.0 mi SE 4.6 mph - N/A   Clear
12:33 PM 12.2 °F 6.1 °F 5.0 °F 73% 30.09 in 10.0 mi SE 3.5 mph - N/A   Clear
12:53 PM 12.2 °F - 5.0 °F 73% 30.08 in 10.0 mi Calm Calm - N/A   Clear
1:13 PM 14.0 °F 6.5 °F 6.8 °F 73% 30.08 in 10.0 mi South 4.6 mph - N/A   Clear
1:33 PM 14.0 °F 6.5 °F 6.8 °F 73% 30.08 in 10.0 mi South 4.6 mph - N/A   Clear
1:53 PM 15.8 °F 10.2 °F 6.8 °F 68% 30.07 in 10.0 mi SSE 3.5 mph - N/A   Clear
2:13 PM 15.8 °F 10.2 °F 6.8 °F 68% 30.07 in 10.0 mi ESE 3.5 mph - N/A   Clear
2:33 PM 15.8 °F 10.2 °F 5.0 °F 62% 30.06 in 10.0 mi SSE 3.5 mph - N/A   Clear
2:53 PM 15.8 °F - 5.0 °F 62% 30.06 in 10.0 mi Calm Calm - N/A   Clear
3:13 PM 15.8 °F - 6.8 °F 68% 30.06 in 10.0 mi Calm Calm - N/A   Clear
3:33 PM 15.8 °F - 6.8 °F 68% 30.06 in 10.0 mi Calm Calm - N/A   Clear
3:53 PM 15.8 °F 6.1 °F 6.8 °F 68% 30.06 in 10.0 mi South 6.9 mph - N/A   Clear
4:14 PM 15.8 °F 6.1 °F 6.8 °F 68% 30.06 in 10.0 mi SSE 6.9 mph - N/A   Clear
4:33 PM 15.8 °F 5.1 °F 6.8 °F 68% 30.06 in 10.0 mi South 8.1 mph - N/A   Clear
4:53 PM 12.2 °F 1.7 °F 5.0 °F 73% 30.07 in 10.0 mi South 6.9 mph - N/A   Clear
5:13 PM 12.2 °F 0.7 °F 5.0 °F 73% 30.07 in 10.0 mi South 8.1 mph - N/A   Scattered Clouds
5:33 PM 12.2 °F 0.7 °F 6.8 °F 79% 30.08 in 10.0 mi South 8.1 mph - N/A   Mostly Cloudy
5:53 PM 12.2 °F 1.7 °F 6.8 °F 79% 30.07 in 10.0 mi South 6.9 mph - N/A   Overcast
6:13 PM 12.2 °F 2.9 °F 5.0 °F 73% 30.08 in 10.0 mi SSE 5.8 mph - N/A   Overcast
6:33 PM 12.2 °F 1.7 °F 6.8 °F 79% 30.07 in 10.0 mi South 6.9 mph - N/A   Overcast
6:53 PM 12.2 °F 0.7 °F 5.0 °F 73% 30.07 in 10.0 mi SSE 8.1 mph - N/A   Overcast
7:13 PM 10.4 °F -1.5 °F 5.0 °F 79% 30.07 in 10.0 mi SSE 8.1 mph - N/A   Overcast
7:33 PM 10.4 °F -1.5 °F 5.0 °F 79% 30.06 in 10.0 mi South 8.1 mph - N/A   Overcast
7:53 PM 10.4 °F 0.8 °F 6.8 °F 85% 30.06 in 10.0 mi South 5.8 mph - N/A   Overcast
8:13 PM 10.4 °F -1.5 °F 6.8 °F 85% 30.05 in 10.0 mi South 8.1 mph - N/A   Overcast
8:33 PM 10.4 °F -0.4 °F 6.8 °F 85% 30.05 in 10.0 mi South 6.9 mph - N/A   Overcast
8:53 PM 10.4 °F 0.8 °F 5.0 °F 79% 30.05 in 10.0 mi SE 5.8 mph - N/A   Overcast
9:13 PM 10.4 °F 2.2 °F 5.0 °F 79% 30.05 in 10.0 mi SSE 4.6 mph - N/A   Overcast
9:33 PM 10.4 °F 0.8 °F 3.2 °F 73% 30.04 in 10.0 mi SE 5.8 mph - N/A   Overcast
9:53 PM 10.4 °F 0.8 °F 3.2 °F 73% 30.04 in 10.0 mi SSE 5.8 mph - N/A   Overcast
10:13 PM 8.6 °F 0.1 °F 3.2 °F 79% 30.04 in 10.0 mi SSE 4.6 mph - N/A   Overcast
10:33 PM 8.6 °F -1.3 °F 3.2 °F 79% 30.03 in 10.0 mi SSE 5.8 mph - N/A   Overcast
10:53 PM 8.6 °F -2.6 °F 3.2 °F 79% 30.02 in 10.0 mi SE 6.9 mph - N/A   Overcast
11:13 PM 8.6 °F -3.7 °F 3.2 °F 79% 30.02 in 10.0 mi SSE 8.1 mph - N/A   Overcast
11:34 PM 10.4 °F 0.8 °F 5.0 °F 79% 30.01 in 10.0 mi SSE 5.8 mph - N/A   Overcast
11:53 PM 10.4 °F 0.8 °F 5.0 °F 79% 30.00 in 10.0 mi SSE 5.8 mph - N/A   Overcast